{"data":{"norad_id":57816,"epoch":"2026-05-24T12:37:35.462496Z","epoch_age_seconds":116736,"freshness":"FRESH","line1":"1 57816U 23138J   26144.52610489  .00001382  00000+0  59747-4 0  9995","line2":"2 57816  43.0032 166.1472 0001898 276.5237  83.5398 15.27575905150150","mean_motion":15.27575905,"eccentricity":0.0001898,"inclination_deg":43.0032,"raan_deg":166.1472,"arg_perigee_deg":276.5237,"mean_anomaly_deg":83.5398,"bstar":5.9747e-5,"rev_number":15015,"period_min":94.267001416208,"perigee_km":481.75910252187,"apogee_km":484.36361341856,"semimajor_km":6861.1983579702,"source":"CELESTRAK","updated_at":"2026-05-25T13:38:18.410018Z"}}